Wind_Speed
61 60 59 58 57 57 57 58 59 59 58 59 60 59 60 61 60 61 62 63 63 63 64 64 65 65 66 67 68 69 71 72 73 73 74 74 74 75
60 60 59 58 58 58 59 59 60 60 60 60 61 61 62 62 63 64 64 64 65 66 67 67 68 69 70 71 72 74 75 76 76 77 78 78 79 80
58 58 58 57 58 58 58 59 60 59 60 61 61 62 62 63 64 64 65 66 66 67 68 69 70 72 73 75 76 76 76 77 77 78 79 80 81 82
54 54 55 55 57 57 58 58 58 58 59 60 60 60 62 63 63 64 65 66 67 69 70 72 73 74 75 76 76 77 77 77 78 79 80 81 81 82
48 49 50 51 53 54 54 54 55 56 58 59 59 60 61 62 63 64 65 66 68 70 71 73 74 75 76 76 76 77 77 78 78 77 77 77 78 79
42 44 45 47 49 50 51 53 54 56 58 58 58 59 61 62 63 63 65 67 69 71 73 74 75 75 76 76 76 77 76 75 74 73 72 72 72 72
38 40 41 44 46 47 49 51 53 54 55 55 57 59 60 61 62 64 65 67 70 71 72 73 73 73 73 73 73 72 70 69 67 65 64 64 63 63
34 36 38 40 42 44 47 48 50 51 52 54 56 58 59 61 63 65 66 68 68 69 68 68 68 67 66 65 65 63 62 60 59 57 56 56 56 56
30 33 35 38 40 43 44 46 47 49 52 54 56 58 60 61 63 65 66 66 66 66 63 60 60 58 58 57 57 56 54 53 51 50 49 49 49 50
27 30 33 35 37 39 42 45 47 50 52 54 56 58 60 61 62 63 62 61 60 59 57 53 53 53 53 53 52 51 50 48 45 44 43 43 43 43
25 28 31 34 37 40 42 45 48 51 53 55 57 58 59 60 59 58 56 54 51 51 50 48 47 46 47 48 49 48 46 43 41 40 38 37 37 37
26 29 32 35 38 41 44 47 49 51 53 55 55 56 56 55 54 52 50 47 45 44 44 43 43 43 40 42 44 45 43 41 39 36 33 32 32 32
29 32 35 37 40 42 45 48 50 51 52 53 53 52 51 50 49 47 45 43 42 41 41 40 39 40 38 36 39 42 41 39 36 34 32 30 30 29
32 35 37 40 42 44 46 48 50 51 51 51 50 49 48 47 44 42 40 40 40 39 39 38 38 37 36 36 36 37 38 37 34 32 31 30 29 28
35 37 40 42 44 46 48 49 50 50 49 48 47 46 44 42 39 38 37 38 38 38 38 37 36 36 36 36 34 33 33 33 33 31 30 29 27 25
37 40 42 43 45 47 48 49 49 48 47 45 43 41 39 38 37 36 36 36 37 38 37 36 36 36 36 35 33 32 31 29 29 29 27 26 25 22
40 41 43 44 46 47 48 48 47 45 43 40 39 38 37 36 36 35 35 35 35 35 35 36 36 35 35 34 33 31 29 28 28 26 25 25 24 21
42 43 44 45 46 47 47 46 44 42 40 38 36 35 35 35 35 35 34 34 33 33 34 34 34 33 32 33 34 32 30 29 28 27 25 23 23 22
43 44 45 46 46 47 46 45 42 40 38 36 34 34 34 34 34 34 33 33 32 33 34 34 33 31 29 29 31 32 29 27 26 26 26 24 22 22
44 45 46 47 47 46 45 42 40 37 35 34 33 33 33 32 32 32 32 31 31 32 32 33 32 31 30 29 28 29 30 27 26 25 25 24 23 22
45 46 47 47 46 44 43 40 37 35 34 33 33 32 32 31 31 31 31 31 30 30 30 31 32 32 31 30 29 28 28 28 28 26 24 22 21 21
46 47 46 45 44 43 40 37 35 34 32 32 31 31 30 31 31 30 30 29 29 29 29 30 31 32 31 31 29 28 27 27 28 27 25 23 21 19
47 46 45 44 42 40 37 34 33 32 31 30 30 30 30 30 30 30 30 29 29 29 29 29 30 31 31 31 30 29 27 26 26 26 26 25 22 20
Wind_Direction
265 266 267 269 270 271 273 275 277 278 279 280 280 280 281 282 283 283 283 284 284 285 286 286 285 285 285 284 284 284 283 283 281 280 279 277 276 274
263 265 266 267 269 272 273 275 277 279 279 279 280 281 282 283 283 283 285 285 285 286 287 287 287 287 286 286 285 285 284 283 281 280 278 276 275 273
262 263 265 267 268 271 273 275 276 278 279 280 281 282 282 283 284 285 286 287 287 288 288 288 288 288 288 287 287 286 284 283 282 280 278 277 275 273
261 262 264 265 267 270 272 273 276 278 279 280 282 283 283 284 285 287 289 289 290 290 290 290 290 289 289 288 287 287 286 285 283 281 279 277 276 274
260 261 263 264 267 269 272 274 276 277 279 281 282 283 285 286 288 289 290 291 291 291 291 291 291 291 290 289 289 288 287 286 284 282 280 278 276 274
260 262 263 266 268 271 273 275 277 279 281 282 283 285 287 288 290 291 292 293 293 293 293 293 293 292 291 291 290 289 287 286 284 283 281 278 277 275
261 263 265 268 270 272 274 276 279 281 282 284 286 288 290 291 293 294 294 295 295 295 295 295 294 293 293 293 292 291 289 288 287 285 282 280 278 276
264 265 267 269 272 275 277 279 281 284 286 288 290 292 293 295 296 296 296 296 296 296 296 296 296 296 295 294 294 294 293 292 290 288 285 282 279 277
266 268 270 272 275 278 281 283 287 289 290 292 293 294 295 296 297 297 297 298 297 297 297 298 297 298 298 298 297 298 297 296 294 291 287 284 281 279
271 274 277 280 283 285 288 290 291 292 293 295 296 297 298 298 298 298 298 299 299 299 300 299 298 300 300 300 300 301 301 300 298 295 292 288 284 281
283 284 287 289 290 292 293 295 295 296 297 298 299 300 300 300 300 300 300 301 301 301 301 302 302 303 303 303 304 305 305 305 304 301 297 292 287 283
292 293 294 295 297 298 299 299 299 300 300 301 301 301 302 302 302 302 303 303 303 302 303 305 305 305 305 305 306 307 308 308 308 306 302 297 292 287
298 299 300 301 302 302 302 302 302 302 302 302 303 304 304 305 305 304 304 304 303 303 304 306 306 306 307 307 306 308 309 309 308 306 304 300 296 292
304 304 304 304 304 304 304 304 305 305 305 305 305 305 306 306 306 307 306 306 306 306 307 308 309 308 308 309 309 308 309 310 309 307 305 302 299 295
306 306 306 306 306 306 307 307 307 307 306 305 305 306 306 307 308 308 308 308 308 308 310 311 311 310 311 312 312 310 309 310 310 309 307 304 302 298
309 309 309 309 308 308 309 309 308 307 306 305 305 306 307 307 308 308 309 309 310 311 313 314 315 315 315 315 315 314 312 311 309 310 310 308 306 302
312 312 312 311 311 311 311 311 309 307 306 305 306 307 307 307 308 308 309 310 310 312 313 315 316 317 318 318 318 317 316 315 313 312 310 309 307 305
314 314 314 314 314 314 313 312 309 307 306 305 306 306 306 307 308 308 309 310 311 312 313 315 316 318 319 319 319 319 319 318 316 314 312 309 306 305
317 316 316 315 315 315 314 312 310 307 306 305 305 306 306 307 308 308 309 310 311 312 314 316 317 317 318 319 317 316 317 317 316 314 313 311 307 305
318 318 317 317 316 315 314 312 309 307 306 305 305 306 307 308 308 309 309 309 310 312 314 316 317 318 319 320 319 316 317 317 316 315 312 309 307 304
319 318 318 318 317 316 314 311 308 307 306 306 307 308 308 309 309 309 309 310 311 313 315 316 317 319 320 322 322 320 318 318 319 318 314 309 306 303
320 320 319 319 318 317 314 312 309 307 307 308 308 309 309 310 311 310 310 311 312 314 316 317 317 318 319 321 321 321 319 319 320 320 317 313 309 303
322 321 321 321 320 318 316 313 310 308 308 308 309 310 310 312 313 313 312 312 314 315 316 316 317 318 319 319 320 320 320 319 319 319 318 315 311 306
Height
5694 5694 5695 5695 5694 5693 5692 5690 5688 5686 5684 5681 5678 5675 5671 5668 5665 5662 5659 5656 5652 5648 5645 5642 5639 5636 5632 5629 5626 5623 5620 5616 5613 5610 5607 5605 5603 5601
5680 5681 5682 5682 5681 5680 5678 5677 5675 5672 5670 5667 5664 5661 5657 5653 5650 5647 5643 5639 5635 5631 5627 5623 5619 5616 5612 5608 5604 5600 5596 5593 5589 5585 5582 5579 5576 5575
5666 5667 5668 5669 5668 5667 5665 5663 5662 5659 5656 5653 5650 5646 5642 5638 5634 5630 5626 5622 5617 5612 5607 5603 5599 5595 5590 5585 5581 5576 5571 5567 5562 5558 5554 5551 5548 5546
5652 5653 5655 5655 5655 5653 5652 5650 5648 5645 5642 5639 5635 5631 5627 5622 5618 5614 5608 5603 5598 5593 5588 5583 5578 5572 5567 5561 5556 5551 5546 5541 5536 5531 5527 5523 5520 5516
5639 5640 5642 5642 5641 5640 5639 5637 5635 5632 5628 5625 5621 5616 5612 5607 5602 5597 5591 5585 5579 5573 5567 5561 5555 5549 5543 5537 5531 5525 5520 5515 5509 5504 5499 5494 5490 5487
5627 5629 5629 5630 5629 5629 5627 5625 5622 5619 5615 5611 5606 5601 5596 5591 5585 5580 5574 5567 5560 5553 5546 5539 5532 5526 5519 5513 5506 5500 5494 5488 5483 5477 5472 5467 5463 5460
5617 5618 5618 5619 5618 5616 5615 5612 5609 5605 5601 5597 5592 5586 5580 5575 5569 5562 5556 5548 5540 5532 5526 5517 5510 5503 5495 5488 5481 5475 5469 5464 5458 5453 5447 5443 5439 5436
5608 5609 5609 5608 5607 5605 5603 5600 5596 5592 5588 5583 5577 5571 5565 5558 5552 5545 5538 5530 5522 5513 5507 5497 5488 5482 5474 5466 5459 5453 5447 5441 5436 5431 5426 5421 5418 5415
5600 5600 5600 5599 5597 5595 5591 5588 5584 5579 5575 5569 5563 5556 5550 5543 5536 5527 5519 5511 5502 5494 5488 5481 5470 5463 5455 5447 5440 5434 5429 5423 5417 5412 5407 5403 5399 5396
5593 5593 5591 5589 5587 5584 5580 5576 5571 5566 5561 5555 5549 5541 5533 5526 5518 5510 5502 5494 5484 5475 5470 5466 5456 5448 5440 5431 5424 5418 5413 5407 5401 5396 5391 5387 5383 5379
5586 5585 5583 5580 5577 5573 5569 5563 5558 5552 5546 5539 5532 5525 5517 5510 5502 5494 5486 5479 5471 5461 5455 5451 5443 5436 5428 5418 5410 5404 5398 5393 5387 5382 5377 5372 5369 5365
5579 5577 5574 5570 5566 5561 5556 5550 5544 5538 5531 5524 5517 5509 5502 5494 5486 5479 5472 5464 5458 5451 5444 5439 5431 5424 5420 5410 5400 5393 5386 5381 5375 5370 5366 5361 5357 5354
5572 5568 5564 5560 5555 5550 5544 5537 5530 5523 5516 5509 5501 5494 5487 5480 5472 5465 5458 5452 5446 5440 5434 5429 5422 5414 5407 5402 5393 5384 5377 5371 5366 5361 5356 5352 5348 5344
5564 5559 5555 5550 5544 5538 5531 5524 5517 5509 5501 5494 5487 5480 5473 5466 5460 5453 5447 5441 5435 5429 5423 5418 5412 5405 5398 5392 5385 5377 5369 5362 5357 5353 5348 5344 5340 5336
5555 5550 5545 5539 5532 5526 5518 5511 5503 5495 5488 5481 5474 5467 5461 5455 5449 5443 5437 5431 5425 5419 5413 5407 5401 5395 5388 5382 5376 5369 5363 5356 5350 5345 5341 5336 5332 5329
5546 5540 5534 5527 5521 5513 5506 5498 5490 5483 5476 5469 5462 5456 5450 5444 5439 5434 5428 5422 5416 5409 5403 5398 5391 5385 5378 5372 5366 5361 5355 5349 5344 5339 5334 5329 5325 5322
5536 5530 5523 5516 5508 5501 5493 5485 5478 5470 5464 5457 5451 5446 5440 5435 5430 5425 5419 5413 5408 5402 5396 5390 5383 5377 5371 5364 5358 5353 5347 5342 5337 5333 5328 5324 5319 5316
5526 5519 5512 5504 5496 5489 5481 5473 5466 5459 5453 5447 5441 5436 5431 5426 5421 5415 5410 5405 5400 5394 5388 5383 5377 5371 5365 5358 5351 5346 5341 5335 5330 5326 5321 5318 5314 5310
5516 5508 5501 5493 5485 5477 5469 5461 5454 5448 5442 5437 5432 5427 5422 5417 5412 5407 5402 5397 5392 5386 5380 5375 5369 5364 5359 5354 5347 5339 5334 5330 5324 5320 5315 5311 5308 5305
5505 5498 5490 5482 5473 5465 5457 5450 5443 5437 5432 5427 5423 5418 5414 5409 5404 5399 5394 5390 5385 5379 5373 5367 5361 5356 5351 5346 5341 5334 5327 5322 5318 5314 5309 5305 5301 5299
5495 5487 5479 5471 5462 5454 5446 5439 5433 5427 5423 5418 5414 5409 5405 5401 5396 5391 5387 5382 5377 5372 5366 5361 5355 5349 5343 5338 5334 5328 5322 5316 5311 5307 5303 5299 5295 5292
5485 5477 5468 5460 5452 5444 5436 5429 5424 5419 5414 5410 5405 5401 5397 5393 5388 5383 5379 5374 5369 5364 5359 5354 5348 5342 5337 5331 5326 5322 5317 5311 5305 5300 5296 5292 5289 5286
5475 5466 5458 5450 5442 5434 5427 5421 5415 5410 5406 5402 5398 5394 5389 5385 5380 5376 5371 5366 5362 5357 5352 5347 5342 5336 5330 5324 5319 5314 5310 5305 5300 5296 5291 5286 5282 5280